| time (UTC) | temp C | wind direction | speed KPH | gust KPH | rain 1hr cm | rain 24hr cm | rain mn cm | humidity % | barometer mb |
| 20260506203853 | 14 | 0.0 | 0.0 | 0.00 | 0.00 | 0.00 | 32 | 1007.5 | |
| 20260506203349 | 14 | 0.0 | 0.0 | 0.00 | 0.00 | 0.00 | 32 | 1007.5 | |
| 20260506202844 | 15 | 0.0 | 0.0 | 0.00 | 0.00 | 0.00 | 31 | 1007.4 | |
| 20260506202339 | 15 | 0.0 | 0.0 | 0.00 | 0.00 | 0.00 | 31 | 1007.3 | |
| 20260506201955 | 15 | 0.0 | 0.0 | 0.00 | 0.00 | 0.00 | 31 | 1007.3 | |
| 20260506201350 | 15 | 180 | 3.2 | 4.8 | 0.00 | 0.00 | 0.00 | 31 | 1007.3 |
| 20260506200826 | 15 | 135 | 4.8 | 8.0 | 0.00 | 0.00 | 0.00 | 31 | 1007.3 |
| 20260506200340 | 15 | 225 | 4.8 | 8.0 | 0.00 | 0.00 | 0.00 | 31 | 1007.1 |
| 20260506195856 | 15 | 180 | 1.6 | 3.2 | 0.00 | 0.00 | 0.00 | 31 | 1007.3 |
| 20260506195312 | 15 | 180 | 3.2 | 6.4 | 0.00 | 0.00 | 0.00 | 31 | 1007.4 |
| 20260506194709 | 15 | 0.0 | 0.0 | 0.00 | 0.00 | 0.00 | 31 | 1007.3 | |
| 20260506194105 | 15 | 0.0 | 0.0 | 0.00 | 0.00 | 0.00 | 31 | 1007.3 | |
| 20260506193522 | 15 | 0.0 | 0.0 | 0.00 | 0.00 | 0.00 | 31 | 1007.2 | |
| 20260506193058 | 15 | 0.0 | 0.0 | 0.00 | 0.00 | 0.00 | 31 | 1007.2 | |
| 20260506192554 | 15 | 225 | 0.0 | 3.2 | 0.00 | 0.00 | 0.00 | 31 | 1007.1 |
| 20260506192050 | 15 | 180 | 0.0 | 4.8 | 0.00 | 0.00 | 0.00 | 31 | 1006.9 |
| 20260506191544 | 15 | 135 | 4.8 | 8.0 | 0.00 | 0.00 | 0.00 | 31 | 1006.9 |
| 20260506191041 | 15 | 225 | 4.8 | 4.8 | 0.00 | 0.00 | 0.00 | 30 | 1007.0 |
| 20260506190536 | 15 | 0.0 | 0.0 | 0.00 | 0.00 | 0.00 | 30 | 1006.9 | |
| 20260506190030 | 16 | 0.0 | 0.0 | 0.00 | 0.00 | 0.00 | 30 | 1006.8 | |
| 20260506185526 | 16 | 180 | 3.2 | 4.8 | 0.00 | 0.00 | 0.00 | 28 | 1006.8 |
| 20260506185021 | 16 | 202 | 4.8 | 4.8 | 0.00 | 0.00 | 0.00 | 26 | 1006.8 |
| 20260506184516 | 16 | 180 | 3.2 | 4.8 | 0.00 | 0.00 | 0.00 | 24 | 1006.9 |
| 20260506184033 | 16 | 180 | 4.8 | 8.0 | 0.00 | 0.00 | 0.00 | 24 | 1006.8 |
| 20260506183409 | 16 | 180 | 4.8 | 4.8 | 0.00 | 0.00 | 0.00 | 22 | 1006.8 |
| 20260506182806 | 17 | 180 | 3.2 | 6.4 | 0.00 | 0.00 | 0.00 | 20 | 1006.8 |
| 20260506182202 | 17 | 0.0 | 0.0 | 0.00 | 0.00 | 0.00 | 20 | 1006.7 | |
| 20260506181758 | 17 | 180 | 4.8 | 6.4 | 0.00 | 0.00 | 0.00 | 20 | 1006.4 |
| 20260506181254 | 17 | 225 | 6.4 | 9.7 | 0.00 | 0.00 | 0.00 | 20 | 1006.5 |
| 20260506180748 | 17 | 225 | 8.0 | 9.7 | 0.00 | 0.00 | 0.00 | 15 | 1006.5 |
| 20260506180243 | 17 | 225 | 9.7 | 12.9 | 0.00 | 0.00 | 0.00 | 15 | 1006.4 |
| 20260506175739 | 18 | 180 | 4.8 | 8.0 | 0.00 | 0.00 | 0.00 | 15 | 1006.4 |
| 20260506175235 | 18 | 225 | 9.7 | 14.5 | 0.00 | 0.00 | 0.00 | 15 | 1006.4 |
| 20260506174730 | 18 | 180 | 9.7 | 14.5 | 0.00 | 0.00 | 0.00 | 15 | 1006.4 |
| 20260506174225 | 18 | 180 | 8.0 | 12.9 | 0.00 | 0.00 | 0.00 | 15 | 1006.1 |
| 20260506173721 | 18 | 225 | 3.2 | 12.9 | 0.00 | 0.00 | 0.00 | 15 | 1006.3 |
| 20260506173216 | 18 | 202 | 9.7 | 11.3 | 0.00 | 0.00 | 0.00 | 15 | 1006.2 |
| 20260506172713 | 18 | 180 | 11.3 | 17.7 | 0.00 | 0.00 | 0.00 | 15 | 1006.3 |
| 20260506172109 | 18 | 180 | 8.0 | 11.3 | 0.00 | 0.00 | 0.00 | 15 | 1006.1 |
| 20260506171506 | 18 | 270 | 8.0 | 11.3 | 0.00 | 0.00 | 0.00 | 15 | 1006.1 |
| 20260506170902 | 18 | 180 | 4.8 | 8.0 | 0.00 | 0.00 | 0.00 | 15 | 1006.2 |
| 20260506170518 | 18 | 180 | 6.4 | 9.7 | 0.00 | 0.00 | 0.00 | 15 | 1006.3 |
| 20260506165953 | 19 | 180 | 8.0 | 9.7 | 0.00 | 0.00 | 0.00 | 15 | 1006.2 |
| 20260506165508 | 19 | 135 | 4.8 | 8.0 | 0.00 | 0.00 | 0.00 | 15 | 1006.2 |
| 20260506164944 | 19 | 180 | 4.8 | 9.7 | 0.00 | 0.00 | 0.00 | 15 | 1006.5 |
| 20260506164441 | 19 | 180 | 11.3 | 16.1 | 0.00 | 0.00 | 0.00 | 15 | 1006.4 |
| 20260506163935 | 19 | 202 | 0.0 | 1.6 | 0.00 | 0.00 | 0.00 | 15 | 1006.4 |
| 20260506163429 | 19 | 180 | 9.7 | 14.5 | 0.00 | 0.00 | 0.00 | 15 | 1006.5 |
| 20260506162925 | 19 | 225 | 4.8 | 6.4 | 0.00 | 0.00 | 0.00 | 15 | 1006.7 |
| 20260506162440 | 19 | 270 | 4.8 | 9.7 | 0.00 | 0.00 | 0.00 | 15 | 1006.7 |
| 20260506161916 | 20 | 202 | 6.4 | 14.5 | 0.00 | 0.00 | 0.00 | 19 | 1006.9 |
| 20260506161433 | 20 | 180 | 6.4 | 9.7 | 0.00 | 0.00 | 0.00 | 19 | 1006.8 |
| 20260506160809 | 20 | 180 | 4.8 | 9.7 | 0.00 | 0.00 | 0.00 | 19 | 1006.7 |
| 20260506160207 | 20 | 180 | 4.8 | 11.3 | 0.00 | 0.00 | 0.00 | 19 | 1006.6 |
| 20260506155605 | 20 | 180 | 8.0 | 14.5 | 0.00 | 0.00 | 0.00 | 19 | 1006.5 |
| 20260506155058 | 20 | 202 | 14.5 | 16.1 | 0.00 | 0.00 | 0.00 | 19 | 1006.5 |
| 20260506154553 | 21 | 270 | 9.7 | 12.9 | 0.00 | 0.00 | 0.00 | 19 | 1006.6 |
| 20260506154049 | 21 | 180 | 11.3 | 14.5 | 0.00 | 0.00 | 0.00 | 19 | 1006.7 |
| 20260506153605 | 21 | 135 | 11.3 | 14.5 | 0.00 | 0.00 | 0.00 | 19 | 1006.6 |
| 20260506153038 | 21 | 180 | 6.4 | 9.7 | 0.00 | 0.00 | 0.00 | 19 | 1006.9 |
| 20260506152534 | 20 | 225 | 9.7 | 12.9 | 0.00 | 0.00 | 0.00 | 19 | 1006.7 |
| 20260506152035 | 20 | 212 | 3.2 | 9.7 | 0.00 | 0.00 | 0.00 | 19 | 1006.6 |
| 20260506151545 | 20 | 225 | 9.7 | 12.9 | 0.00 | 0.00 | 0.00 | 19 | 1006.4 |
| 20260506151021 | 20 | 180 | 12.9 | 17.7 | 0.00 | 0.00 | 0.00 | 19 | 1006.6 |
| 20260506150516 | 20 | 180 | 3.2 | 9.7 | 0.00 | 0.00 | 0.00 | 19 | 1006.6 |
| 20260506150012 | 20 | 225 | 11.3 | 14.5 | 0.00 | 0.00 | 0.00 | 19 | 1006.6 |
| 20260506145410 | 20 | 225 | 6.4 | 11.3 | 0.00 | 0.00 | 0.00 | 19 | 1006.7 |
| 20260506144806 | 20 | 180 | 9.7 | 14.5 | 0.00 | 0.00 | 0.00 | 19 | 1006.5 |
| 20260506144202 | 21 | 270 | 6.4 | 9.7 | 0.00 | 0.00 | 0.00 | 19 | 1006.9 |
| 20260506143657 | 21 | 225 | 9.7 | 14.5 | 0.00 | 0.00 | 0.00 | 19 | 1006.7 |
| 20260506143153 | 21 | 0.0 | 0.0 | 0.00 | 0.00 | 0.00 | 19 | 1006.8 | |
| 20260506142648 | 21 | 225 | 9.7 | 14.5 | 0.00 | 0.00 | 0.00 | 19 | 1007.1 |
| 20260506142204 | 21 | 180 | 6.4 | 9.7 | 0.00 | 0.00 | 0.00 | 19 | 1006.8 |
| 20260506141644 | 21 | 180 | 17.7 | 20.9 | 0.00 | 0.00 | 0.00 | 19 | 1007.1 |
| 20260506141134 | 21 | 0.0 | 1.6 | 0.00 | 0.00 | 0.00 | 19 | 1006.9 | |
| 20260506140630 | 21 | 225 | 9.7 | 12.9 | 0.00 | 0.00 | 0.00 | 19 | 1006.9 |
| 20260506140125 | 21 | 225 | 9.7 | 12.9 | 0.00 | 0.00 | 0.00 | 19 | 1006.8 |
| 20260506135620 | 21 | 225 | 4.8 | 11.3 | 0.00 | 0.00 | 0.00 | 19 | 1006.9 |
| 20260506135116 | 21 | 180 | 3.2 | 4.8 | 0.00 | 0.00 | 0.00 | 19 | 1006.9 |
| 20260506134613 | 21 | 180 | 14.5 | 24.1 | 0.00 | 0.00 | 0.00 | 19 | 1006.8 |
| 20260506134010 | 21 | 292 | 14.5 | 19.3 | 0.00 | 0.00 | 0.00 | 19 | 1007.1 |
| 20260506133406 | 20 | 225 | 14.5 | 17.7 | 0.00 | 0.00 | 0.00 | 19 | 1007.1 |
| 20260506132823 | 21 | 270 | 19.3 | 27.4 | 0.00 | 0.00 | 0.00 | 19 | 1007.3 |
| 20260506132359 | 21 | 270 | 14.5 | 19.3 | 0.00 | 0.00 | 0.00 | 19 | 1007.3 |
| 20260506131855 | 21 | 225 | 9.7 | 12.9 | 0.00 | 0.00 | 0.00 | 19 | 1007.4 |
| 20260506131350 | 21 | 180 | 4.8 | 8.0 | 0.00 | 0.00 | 0.00 | 19 | 1007.3 |
| 20260506130845 | 21 | 270 | 14.5 | 19.3 | 0.00 | 0.00 | 0.00 | 19 | 1007.5 |
| 20260506130343 | 21 | 225 | 19.3 | 29.0 | 0.00 | 0.00 | 0.00 | 19 | 1007.2 |
| 20260506125836 | 21 | 225 | 14.5 | 24.1 | 0.00 | 0.00 | 0.00 | 19 | 1007.3 |
| 20260506125331 | 21 | 225 | 16.1 | 19.3 | 0.00 | 0.00 | 0.00 | 19 | 1007.4 |
| 20260506124827 | 21 | 180 | 14.5 | 19.3 | 0.00 | 0.00 | 0.00 | 19 | 1007.3 |
| 20260506124343 | 21 | 180 | 19.3 | 20.9 | 0.00 | 0.00 | 0.00 | 19 | 1007.3 |
| 20260506123817 | 21 | 225 | 9.7 | 14.5 | 0.00 | 0.00 | 0.00 | 19 | 1007.6 |
| 20260506123334 | 22 | 180 | 12.9 | 16.1 | 0.00 | 0.00 | 0.00 | 19 | 1007.4 |
| 20260506122710 | 23 | 180 | 11.3 | 16.1 | 0.00 | 0.00 | 0.00 | 19 | 1007.3 |
| 20260506122107 | 22 | 225 | 14.5 | 16.1 | 0.00 | 0.00 | 0.00 | 19 | 1007.4 |
| 20260506121503 | 23 | 247 | 9.7 | 14.5 | 0.00 | 0.00 | 0.00 | 19 | 1007.4 |
| 20260506121042 | 22 | 270 | 11.3 | 19.3 | 0.00 | 0.00 | 0.00 | 19 | 1007.5 |
| 20260506120455 | 23 | 225 | 8.0 | 12.9 | 0.00 | 0.00 | 0.00 | 19 | 1007.3 |
| 20260506115950 | 23 | 225 | 9.7 | 16.1 | 0.00 | 0.00 | 0.00 | 19 | 1007.5 |
| 20260506115446 | 24 | 180 | 9.7 | 16.1 | 0.00 | 0.00 | 0.00 | 19 | 1007.3 |
| 20260506114941 | 23 | 225 | 4.8 | 9.7 | 0.00 | 0.00 | 0.00 | 19 | 1007.6 |
| 20260506114617 | 23 | 270 | 11.3 | 14.5 | 0.00 | 0.00 | 0.00 | 19 | 1007.7 |
| 20260506113934 | 23 | 315 | 14.5 | 16.1 | 0.00 | 0.00 | 0.00 | 19 | 1007.9 |
| 20260506113427 | 23 | 225 | 11.3 | 16.1 | 0.00 | 0.00 | 0.00 | 19 | 1007.9 |
| 20260506112923 | 22 | 225 | 14.5 | 19.3 | 0.00 | 0.00 | 0.00 | 19 | 1007.6 |
| 20260506112418 | 22 | 180 | 14.5 | 19.3 | 0.00 | 0.00 | 0.00 | 19 | 1007.9 |
| 20260506111918 | 22 | 270 | 16.1 | 20.9 | 0.00 | 0.00 | 0.00 | 19 | 1007.9 |
| 20260506111312 | 21 | 180 | 9.7 | 14.5 | 0.00 | 0.00 | 0.00 | 19 | 1007.9 |
| 20260506110727 | 21 | 270 | 14.5 | 17.7 | 0.00 | 0.00 | 0.00 | 19 | 1007.9 |
| 20260506110105 | 21 | 270 | 14.5 | 19.3 | 0.00 | 0.00 | 0.00 | 19 | 1007.9 |
| 20260506105559 | 21 | 225 | 6.4 | 9.7 | 0.00 | 0.00 | 0.00 | 19 | 1007.9 |
| 20260506105115 | 21 | 180 | 12.9 | 16.1 | 0.00 | 0.00 | 0.00 | 19 | 1007.6 |
| 20260506104610 | 22 | 225 | 16.1 | 24.1 | 0.00 | 0.00 | 0.00 | 19 | 1008.0 |
| 20260506104106 | 22 | 270 | 11.3 | 17.7 | 0.00 | 0.00 | 0.00 | 19 | 1007.7 |
| 20260506103541 | 23 | 270 | 9.7 | 14.5 | 0.00 | 0.00 | 0.00 | 19 | 1007.7 |
| 20260506103037 | 23 | 315 | 14.5 | 19.3 | 0.00 | 0.00 | 0.00 | 19 | 1007.5 |
| 20260506102532 | 24 | 225 | 14.5 | 19.3 | 0.00 | 0.00 | 0.00 | 19 | 1007.7 |
| 20260506102029 | 24 | 180 | 12.9 | 17.7 | 0.00 | 0.00 | 0.00 | 19 | 1007.6 |
| 20260506101523 | 24 | 180 | 22.5 | 24.1 | 0.00 | 0.00 | 0.00 | 19 | 1007.4 |
| 20260506101019 | 24 | 180 | 11.3 | 19.3 | 0.00 | 0.00 | 0.00 | 19 | 1007.4 |
| 20260506100515 | 24 | 180 | 11.3 | 16.1 | 0.00 | 0.00 | 0.00 | 19 | 1007.6 |
| 20260506095910 | 24 | 225 | 12.9 | 22.5 | 0.00 | 0.00 | 0.00 | 19 | 1007.6 |
| 20260506095307 | 23 | 180 | 9.7 | 14.5 | 0.00 | 0.00 | 0.00 | 19 | 1007.7 |
| 20260506094723 | 23 | 180 | 19.3 | 20.9 | 0.00 | 0.00 | 0.00 | 19 | 1007.6 |
| 20260506094159 | 23 | 180 | 4.8 | 9.7 | 0.00 | 0.00 | 0.00 | 19 | 1007.6 |
| 20260506093655 | 23 | 225 | 4.8 | 8.0 | 0.00 | 0.00 | 0.00 | 19 | 1007.7 |
| 20260506093150 | 23 | 202 | 9.7 | 12.9 | 0.00 | 0.00 | 0.00 | 19 | 1007.5 |
| 20260506092645 | 23 | 225 | 9.7 | 14.5 | 0.00 | 0.00 | 0.00 | 19 | 1007.7 |
| 20260506092141 | 23 | 180 | 9.7 | 14.5 | 0.00 | 0.00 | 0.00 | 19 | 1007.7 |
| 20260506091657 | 23 | 180 | 12.9 | 14.5 | 0.00 | 0.00 | 0.00 | 19 | 1007.6 |
| 20260506091132 | 23 | 180 | 14.5 | 19.3 | 0.00 | 0.00 | 0.00 | 19 | 1007.7 |
| 20260506090627 | 23 | 0.0 | 0.0 | 0.00 | 0.00 | 0.00 | 19 | 1007.7 | |
| 20260506090122 | 23 | 180 | 14.5 | 24.1 | 0.00 | 0.00 | 0.00 | 19 | 1008.0 |
| 20260506085618 | 22 | 225 | 9.7 | 12.9 | 0.00 | 0.00 | 0.00 | 19 | 1007.7 |
| 20260506085114 | 22 | 180 | 16.1 | 22.5 | 0.00 | 0.00 | 0.00 | 19 | 1007.9 |
| 20260506084510 | 22 | 225 | 11.3 | 14.5 | 0.00 | 0.00 | 0.00 | 19 | 1007.9 |
| 20260506083907 | 22 | 225 | 9.7 | 14.5 | 0.00 | 0.00 | 0.00 | 19 | 1007.7 |
| 20260506083303 | 22 | 247 | 9.7 | 12.9 | 0.00 | 0.00 | 0.00 | 19 | 1007.9 |
| 20260506082900 | 22 | 270 | 11.3 | 14.5 | 0.00 | 0.00 | 0.00 | 19 | 1007.9 |
| 20260506082355 | 22 | 180 | 17.7 | 19.3 | 0.00 | 0.00 | 0.00 | 19 | 1007.9 |
| 20260506081851 | 22 | 270 | 4.8 | 9.7 | 0.00 | 0.00 | 0.00 | 19 | 1007.9 |
| 20260506081348 | 22 | 270 | 14.5 | 19.3 | 0.00 | 0.00 | 0.00 | 19 | 1008.0 |
| 20260506080842 | 22 | 202 | 9.7 | 14.5 | 0.00 | 0.00 | 0.00 | 19 | 1008.0 |
| 20260506080337 | 21 | 225 | 9.7 | 14.5 | 0.00 | 0.00 | 0.00 | 19 | 1008.0 |
| 20260506073313 | 20 | 180 | 9.7 | 14.5 | 0.00 | 0.00 | 0.00 | 19 | 1008.0 |
| 20260506072709 | 20 | 180 | 14.5 | 19.3 | 0.00 | 0.00 | 0.00 | 19 | 1007.9 |
| 20260506072125 | 20 | 180 | 11.3 | 19.3 | 0.00 | 0.00 | 0.00 | 19 | 1007.9 |
| 20260506071501 | 20 | 180 | 12.9 | 19.3 | 0.00 | 0.00 | 0.00 | 19 | 1007.6 |
| 20260506071058 | 20 | 270 | 12.9 | 17.7 | 0.00 | 0.00 | 0.00 | 19 | 1008.0 |
| 20260506070553 | 20 | 225 | 9.7 | 16.1 | 0.00 | 0.00 | 0.00 | 19 | 1008.0 |
| 20260506062041 | 18 | 315 | 1.6 | 4.8 | 0.00 | 0.00 | 0.00 | 20 | 1008.0 |
| 20260506061536 | 18 | 0.0 | 0.0 | 0.00 | 0.00 | 0.00 | 20 | 1008.0 | |
| 20260506061032 | 17 | 0.0 | 0.0 | 0.00 | 0.00 | 0.00 | 20 | 1008.0 | |
| 20260506060527 | 17 | 225 | 3.2 | 4.8 | 0.00 | 0.00 | 0.00 | 15 | 1007.9 |
| 20260506051246 | 14 | 270 | 3.2 | 4.8 | 0.00 | 0.00 | 0.00 | 28 | 1007.9 |
| 20260506050744 | 13 | 225 | 3.2 | 4.8 | 0.00 | 0.00 | 0.00 | 30 | 1008.1 |
| 20260506050237 | 13 | 225 | 4.8 | 8.0 | 0.00 | 0.00 | 0.00 | 30 | 1007.9 |
| 20260506044724 | 14 | 0.0 | 0.0 | 0.00 | 0.00 | 0.00 | 28 | 1008.0 | |
| 20260506044219 | 14 | 0.0 | 0.0 | 0.00 | 0.00 | 0.00 | 30 | 1007.9 | |
| 20260506043715 | 13 | 180 | 6.4 | 9.7 | 0.00 | 0.00 | 0.00 | 30 | 1007.7 |
| 20260506043111 | 13 | 225 | 4.8 | 8.0 | 0.00 | 0.00 | 0.00 | 31 | 1008.1 |
| 20260506042508 | 12 | 270 | 4.8 | 6.4 | 0.00 | 0.00 | 0.00 | 32 | 1007.9 |
| 20260506041935 | 12 | 0.0 | 0.0 | 0.00 | 0.00 | 0.00 | 32 | 1007.6 | |
| 20260506041422 | 12 | 0.0 | 0.0 | 0.00 | 0.00 | 0.00 | 32 | 1007.9 | |
| 20260506040856 | 12 | 180 | 0.0 | 3.2 | 0.00 | 0.00 | 0.00 | 35 | 1007.7 |
| 20260506040352 | 11 | 202 | 0.0 | 4.8 | 0.00 | 0.00 | 0.00 | 36 | 1007.7 |
| 20260506040028 | 11 | 0.0 | 0.0 | 0.00 | 0.00 | 0.00 | 35 | 1007.7 | |
| 20260506035342 | 11 | 0.0 | 0.0 | 0.00 | 0.00 | 0.00 | 35 | 1007.6 | |
| 20260506034838 | 11 | 0.0 | 0.0 | 0.00 | 0.00 | 0.00 | 35 | 1007.6 | |
| 20260506034334 | 12 | 225 | 3.2 | 4.8 | 0.00 | 0.00 | 0.00 | 35 | 1007.7 |
| 20260506033829 | 11 | 202 | 3.2 | 4.8 | 0.00 | 0.00 | 0.00 | 35 | 1007.6 |
| 20260506033325 | 11 | 270 | 4.8 | 6.4 | 0.00 | 0.00 | 0.00 | 36 | 1007.5 |
| 20260506032820 | 11 | 225 | 4.8 | 6.4 | 0.00 | 0.00 | 0.00 | 38 | 1007.4 |
| 20260506032317 | 11 | 0.0 | 0.0 | 0.00 | 0.00 | 0.00 | 39 | 1007.6 | |
| 20260506031832 | 11 | 0.0 | 0.0 | 0.00 | 0.00 | 0.00 | 40 | 1007.5 | |
| 20260506031208 | 10 | 0.0 | 0.0 | 0.00 | 0.00 | 0.00 | 41 | 1007.4 | |
| 20260506030605 | 10 | 0.0 | 0.0 | 0.00 | 0.00 | 0.00 | 42 | 1007.6 | |
| 20260506030002 | 10 | 0.0 | 0.0 | 0.00 | 0.00 | 0.00 | 43 | 1007.5 | |
| 20260506025619 | 10 | 0.0 | 0.0 | 0.00 | 0.00 | 0.00 | 43 | 1007.6 | |
| 20260506025054 | 9 | 0.0 | 0.0 | 0.00 | 0.00 | 0.00 | 43 | 1007.4 | |
| 20260506024549 | 9 | 0.0 | 0.0 | 0.00 | 0.00 | 0.00 | 42 | 1007.4 | |
| 20260506024044 | 9 | 0.0 | 0.0 | 0.00 | 0.00 | 0.00 | 42 | 1007.4 | |
| 20260506023540 | 9 | 0.0 | 0.0 | 0.00 | 0.00 | 0.00 | 41 | 1007.3 | |
| 20260506023035 | 9 | 0.0 | 0.0 | 0.00 | 0.00 | 0.00 | 41 | 1007.3 | |
| 20260506022551 | 9 | 0.0 | 0.0 | 0.00 | 0.00 | 0.00 | 40 | 1007.3 | |
| 20260506022026 | 10 | 0.0 | 0.0 | 0.00 | 0.00 | 0.00 | 40 | 1007.3 | |
| 20260506021522 | 10 | 0.0 | 0.0 | 0.00 | 0.00 | 0.00 | 40 | 1007.3 | |
| 20260506021017 | 10 | 0.0 | 0.0 | 0.00 | 0.00 | 0.00 | 40 | 1007.3 | |
| 20260506020513 | 10 | 0.0 | 0.0 | 0.00 | 0.00 | 0.00 | 40 | 1007.3 | |
| 20260506015910 | 10 | 0.0 | 0.0 | 0.00 | 0.00 | 0.00 | 40 | 1007.2 | |
| 20260506015306 | 10 | 0.0 | 0.0 | 0.00 | 0.00 | 0.00 | 40 | 1007.1 | |
| 20260506014743 | 10 | 0.0 | 0.0 | 0.00 | 0.00 | 0.00 | 40 | 1007.3 | |
| 20260506014300 | 10 | 0.0 | 0.0 | 0.00 | 0.00 | 0.00 | 40 | 1007.3 | |
| 20260506013755 | 10 | 0.0 | 0.0 | 0.00 | 0.00 | 0.00 | 41 | 1007.3 | |
| 20260506013251 | 10 | 0.0 | 0.0 | 0.00 | 0.00 | 0.00 | 39 | 1007.4 | |
| 20260506012747 | 10 | 0.0 | 0.0 | 0.00 | 0.00 | 0.00 | 35 | 1007.4 | |
| 20260506012242 | 11 | 0.0 | 0.0 | 0.00 | 0.00 | 0.00 | 33 | 1007.4 | |
| 20260506011737 | 11 | 0.0 | 0.0 | 0.00 | 0.00 | 0.00 | 34 | 1007.3 | |
| 20260506011232 | 11 | 0.0 | 0.0 | 0.00 | 0.00 | 0.00 | 33 | 1007.3 | |
| 20260506010733 | 11 | 0.0 | 0.0 | 0.00 | 0.00 | 0.00 | 33 | 1007.3 | |
| 20260506010303 | 11 | 0.0 | 0.0 | 0.00 | 0.00 | 0.00 | 32 | 1007.3 | |
| 20260506005719 | 12 | 0.0 | 0.0 | 0.00 | 0.00 | 0.00 | 31 | 1007.2 | |
| 20260506005234 | 12 | 0.0 | 0.0 | 0.00 | 0.00 | 0.00 | 30 | 1007.2 | |
| 20260506004631 | 12 | 180 | 4.8 | 8.0 | 0.00 | 0.00 | 0.00 | 30 | 1007.3 |
| 20260506004007 | 12 | 0.0 | 0.0 | 0.00 | 0.00 | 0.00 | 30 | 1007.4 | |
| 20260506003424 | 12 | 225 | 4.8 | 6.4 | 0.00 | 0.00 | 0.00 | 30 | 1007.2 |
| 20260506002921 | 12 | 180 | 1.6 | 3.2 | 0.00 | 0.00 | 0.00 | 30 | 1007.2 |
| 20260506002416 | 12 | 180 | 4.8 | 8.0 | 0.00 | 0.00 | 0.00 | 30 | 1007.4 |
| 20260506001850 | 13 | 225 | 4.8 | 8.0 | 0.00 | 0.00 | 0.00 | 28 | 1007.3 |
| 20260506001406 | 13 | 247 | 4.8 | 8.0 | 0.00 | 0.00 | 0.00 | 28 | 1007.4 |
| 20260506000841 | 13 | 270 | 6.4 | 9.7 | 0.00 | 0.00 | 0.00 | 26 | 1007.3 |
| 20260506000336 | 13 | 180 | 8.0 | 9.7 | 0.00 | 0.00 | 0.00 | 28 | 1007.3 |
| 20260505235852 | 13 | 225 | 8.0 | 9.7 | 0.00 | 0.00 | 0.00 | 28 | 1007.4 |
| 20260505235347 | 13 | 225 | 3.2 | 4.8 | 0.00 | 0.00 | 0.00 | 28 | 1007.4 |
| 20260505234822 | 13 | 225 | 11.3 | 14.5 | 0.00 | 0.00 | 0.00 | 28 | 1007.4 |
| 20260505234317 | 13 | 180 | 8.0 | 9.7 | 0.00 | 0.00 | 0.00 | 28 | 1007.5 |
| 20260505233833 | 13 | 180 | 11.3 | 14.5 | 0.00 | 0.00 | 0.00 | 30 | 1007.7 |
| 20260505233210 | 13 | 135 | 8.0 | 9.7 | 0.00 | 0.00 | 0.00 | 30 | 1007.6 |
| 20260505232606 | 13 | 225 | 4.8 | 9.7 | 0.00 | 0.00 | 0.00 | 30 | 1008.0 |
| 20260505232022 | 13 | 180 | 9.7 | 12.9 | 0.00 | 0.00 | 0.00 | 30 | 1008.1 |
| 20260505231458 | 12 | 135 | 4.8 | 4.8 | 0.00 | 0.00 | 0.00 | 30 | 1007.9 |
| 20260505230954 | 12 | 180 | 4.8 | 8.0 | 0.00 | 0.00 | 0.00 | 30 | 1008.0 |
| 20260505230449 | 12 | 225 | 4.8 | 9.7 | 0.00 | 0.00 | 0.00 | 30 | 1008.1 |
| 20260505225944 | 12 | 180 | 3.2 | 4.8 | 0.00 | 0.00 | 0.00 | 30 | 1008.1 |
| 20260505225440 | 12 | 225 | 0.0 | 3.2 | 0.00 | 0.00 | 0.00 | 28 | 1008.1 |
| 20260505224935 | 13 | 0.0 | 0.0 | 0.00 | 0.00 | 0.00 | 26 | 1008.4 | |
| 20260505224431 | 13 | 180 | 6.4 | 9.7 | 0.00 | 0.00 | 0.00 | 26 | 1008.1 |
| 20260505223926 | 13 | 180 | 3.2 | 4.8 | 0.00 | 0.00 | 0.00 | 26 | 1008.3 |
| 20260505223422 | 13 | 247 | 6.4 | 9.7 | 0.00 | 0.00 | 0.00 | 26 | 1008.2 |
| 20260505222917 | 13 | 225 | 3.2 | 6.4 | 0.00 | 0.00 | 0.00 | 24 | 1008.3 |
| 20260505222413 | 13 | 180 | 9.7 | 14.5 | 0.00 | 0.00 | 0.00 | 24 | 1007.9 |
| 20260505221810 | 13 | 225 | 6.4 | 9.7 | 0.00 | 0.00 | 0.00 | 24 | 1008.0 |
| 20260505221207 | 13 | 180 | 6.4 | 9.7 | 0.00 | 0.00 | 0.00 | 24 | 1008.2 |
| 20260505220603 | 14 | 180 | 9.7 | 14.5 | 0.00 | 0.00 | 0.00 | 22 | 1008.1 |
| 20260505220100 | 14 | 180 | 9.7 | 14.5 | 0.00 | 0.00 | 0.00 | 22 | 1008.0 |
| 20260505215555 | 14 | 157 | 9.7 | 14.5 | 0.00 | 0.00 | 0.00 | 22 | 1008.2 |
| 20260505215050 | 14 | 270 | 8.0 | 9.7 | 0.00 | 0.00 | 0.00 | 20 | 1008.2 |
| 20260505214546 | 14 | 270 | 14.5 | 19.3 | 0.00 | 0.00 | 0.00 | 20 | 1008.0 |
| 20260505214101 | 14 | 225 | 9.7 | 14.5 | 0.00 | 0.00 | 0.00 | 22 | 1008.2 |
| 20260505213536 | 14 | 270 | 14.5 | 20.9 | 0.00 | 0.00 | 0.00 | 22 | 1008.1 |
| 20260505213052 | 14 | 270 | 4.8 | 9.7 | 0.00 | 0.00 | 0.00 | 22 | 1008.2 |
| 20260505212528 | 13 | 180 | 4.8 | 9.7 | 0.00 | 0.00 | 0.00 | 22 | 1008.1 |
| 20260505212020 | 13 | 180 | 3.2 | 6.4 | 0.00 | 0.00 | 0.00 | 22 | 1008.4 |
| 20260505211516 | 13 | 180 | 3.2 | 4.8 | 0.00 | 0.00 | 0.00 | 22 | 1008.3 |
| 20260505211013 | 13 | 225 | 6.4 | 9.7 | 0.00 | 0.00 | 0.00 | 22 | 1008.4 |
| 20260505210409 | 13 | 270 | 4.8 | 8.0 | 0.00 | 0.00 | 0.00 | 22 | 1008.4 |
| 20260505205805 | 13 | 225 | 6.4 | 9.7 | 0.00 | 0.00 | 0.00 | 22 | 1008.4 |
| 20260505205201 | 13 | 180 | 6.4 | 9.7 | 0.00 | 0.00 | 0.00 | 22 | 1008.4 |
| 20260505204717 | 13 | 225 | 0.0 | 3.2 | 0.00 | 0.00 | 0.00 | 24 | 1008.2 |
| 20260505204152 | 13 | 180 | 8.0 | 9.7 | 0.00 | 0.00 | 0.00 | 24 | 1008.2 |